MDT,Max TemperatureF,Mean TemperatureF,Min TemperatureF,Max Dew PointF,MeanDew PointF,Min DewpointF,Max Humidity, Mean Humidity, Min Humidity, Max Sea Level PressureIn, Mean Sea Level PressureIn, Min Sea Level PressureIn, Max VisibilityMiles, Mean VisibilityMiles, Min VisibilityMiles, Max Wind SpeedMPH, Mean Wind SpeedMPH, Max Gust SpeedMPH,PrecipitationIn, CloudCover, Events, WindDirDegrees
2013-9-1,100,83,65,55,48,44,48,32,16,29.86,29.81,29.75,10,10,10,20,5,26,0.00,0,,145
2013-9-2,93,82,71,63,60,57,73,54,34,30.06,29.92,29.84,10,10,10,24,7,30,0.00,1,Thunderstorm,359
2013-9-3,94,81,67,63,54,43,81,49,17,29.99,29.93,29.86,10,10,10,18,5,26,0.00,0,,164
2013-9-4,96,80,63,52,44,40,56,36,15,30.03,29.97,29.91,10,10,10,18,5,25,0.00,0,,169
2013-9-5,95,80,65,50,42,37,48,32,15,30.05,29.99,29.93,10,10,10,17,6,23,0.00,0,,180
2013-9-6,94,80,65,56,50,37,46,35,24,30.04,29.95,29.87,10,10,6,16,5,28,0.00,0,,154
2013-9-7,94,80,65,54,51,47,63,43,22,29.97,29.90,29.83,10,10,10,17,6,24,0.00,0,,169
2013-9-8,93,80,67,65,55,48,84,54,24,29.98,29.83,29.75,10,10,5,24,5,31,0.06,1,Rain,176
2013-9-9,87,75,62,63,59,54,90,61,32,30.04,29.83,29.73,10,10,10,26,10,32,0.00,1,,153
2013-9-10,84,75,65,67,62,58,90,65,40,30.10,29.89,29.82,10,10,9,26,9,31,0.13,5,Rain,152
2013-9-11,71,68,65,70,66,63,100,97,93,30.17,30.06,29.88,10,6,1,18,8,25,2.82,8,Rain,133
2013-9-12,70,67,64,66,65,64,100,93,83,30.19,30.06,29.95,10,8,5,12,7,,0.55,8,Rain,72
2013-9-13,83,74,65,66,63,56,93,67,40,29.95,29.89,29.81,10,10,7,21,6,25,0.00,2,,99
2013-9-14,83,74,64,65,60,56,93,67,40,29.90,29.83,29.78,10,10,10,15,4,20,0.00,1,,188
2013-9-15,83,73,62,63,59,53,93,67,40,30.11,29.92,29.82,10,10,5,13,4,16,0.05,3,Rain-Thunderstorm,114
2013-9-16,85,75,64,65,61,57,87,64,40,30.18,30.00,29.90,10,10,10,24,7,29,0.14,4,Rain-Thunderstorm,124
2013-9-17,82,74,66,66,64,61,93,72,51,30.20,30.02,29.84,10,10,9,18,9,28,0.01,6,Rain-Thunderstorm,167
2013-9-18,86,75,64,65,63,60,93,68,42,30.05,29.83,29.73,10,9,5,21,11,25,0.00,1,,163
2013-9-19,82,74,65,67,65,63,93,74,54,30.02,29.83,29.74,10,10,10,17,7,22,0.09,4,Rain-Thunderstorm,161
2013-9-20,80,72,63,66,61,57,93,71,49,30.14,29.96,29.83,10,10,9,23,8,28,0.01,5,Rain,41
2013-9-21,79,70,61,61,58,56,90,68,45,30.15,29.95,29.82,10,10,2,16,9,23,0.00,3,,163
2013-9-22,84,71,58,59,53,42,93,62,31,29.81,29.71,29.61,10,10,8,26,14,32,0.00,0,,166
2013-9-23,87,72,56,51,38,29,80,47,13,29.83,29.71,29.60,10,10,10,22,9,28,0.00,0,,308
2013-9-24,83,69,54,48,43,36,64,42,20,30.02,29.91,29.83,10,10,10,15,5,18,0.00,0,,285
2013-9-25,91,70,49,53,48,44,86,54,21,29.86,29.73,29.61,10,10,10,23,9,30,0.00,0,,182
2013-9-26,92,76,60,54,51,47,72,48,23,29.69,29.63,29.59,10,10,10,24,11,31,0.00,1,,188
2013-9-27,87,76,65,63,56,42,87,60,32,29.80,29.65,29.57,10,10,10,24,12,35,T,5,,174
2013-9-28,76,65,53,42,35,26,61,42,23,30.10,29.99,29.81,10,10,10,21,7,25,0.00,1,,345
2013-9-29,82,65,47,44,40,33,77,48,18,30.10,29.98,29.87,10,10,10,12,5,17,0.00,0,,212
2013-9-30,92,69,46,41,35,25,76,43,9,29.86,29.76,29.68,10,10,10,14,4,22,0.00,0,,228